Regional Weather Roundup
Issued by NWS

Home | Current Version | Previous Version | Text Only | Print | Product List | Glossary On
Versions: 1 2 3 4 5 6 7 8 9 10 11 12 13 14 15 16 17 18 19 20 21 22 23 24 25 26 27 28 29 30 31 32 33 34 35 36 37 38 39 40 41 42 43 44 45 46 47 48 49
000
ASUS43 KDMX 281907
RWRIA

WEATHER ROUNDUP FOR IOWA
NATIONAL WEATHER SERVICE DES MOINES IA
200 PM CDT TUE JUL 28 2015

NOTE: "FAIR" INDICATES FEW OR NO CLOUDS BELOW 12,000 FEET WITH NO
SIGNIFICANT WEATHER AND/OR OBSTRUCTIONS TO VISIBILITY.

* - THESE STATIONS ARE NOT NWS STATIONS...THUS NOT UNDER NWS
QUALITY CONTROL.  THEY ALSO DO NOT REPORT WEATHER SUCH
AS PRECIPITATION OR FOG.

IAZ001>003-012>014-020>022-031>034-043>046-282000-
   NORTHWEST IOWA

CITY           SKY/WX    TMP DP  RH WIND       PRES   REMARKS
CARROLL *      MOSUNNY   75  75 100 SE10      29.88F
CHEROKEE *     CLOUDY    75  72  88 SW8       29.89R
DENISON *      PTSUNNY   79  75  89 S12       29.85F HX  82
LE MARS *      CLOUDY    73  72  94 VRB6G14   29.90R
ORANGE CITY *  CLOUDY    72  70  94 NW12      29.89S FOG
SHELDON *      CLOUDY    73  72  94 VRB6      29.87S FOG
SIOUX CITY     LGT RAIN  76  70  82 NW14G23   29.88R
SPENCER        CLOUDY    80  70  71 SW14      29.88R HX  83
STORM LAKE *   PTSUNNY   73  70  88 SW6G14    29.91R
$$

IAZ055>058-069>071-079>083-090>094-282000-
   SOUTHWEST IOWA

CITY           SKY/WX    TMP DP  RH WIND       PRES   REMARKS
ATLANTIC *     MOSUNNY   86  75  70 S8G20     29.88R HX  95
AUDUBON *      MOSUNNY   82  75  78 S5        29.91R HX  89
CLARINDA *     MOSUNNY   90  79  70 SE10      29.87S HX 105
COUNCIL BLFS * MOSUNNY   86  77  74 SE12      29.87S HX  97
CRESTON *      SUNNY     86  77  74 S16G23    29.88F HX  97
HARLAN  *      MOSUNNY   82  82 100 S7        29.92R HX  97
LAMONI         PTSUNNY   90  78  68 SE14G21   29.89F HX 104
RED OAK *      MOSUNNY   88  79  74 S12       29.86F HX 102
SHENANDOAH *   MOSUNNY   90  79  70 S12       29.86S HX 105
$$

IAZ047>049-059>061-072>074-084-282000-
   CENTRAL IOWA

CITY           SKY/WX    TMP DP  RH WIND       PRES   REMARKS
AMES           CLOUDY    75  74  96 NW10G21   29.92R
ANKENY *       MOSUNNY   81  77  89 VRB5      29.88R HX  88
CHARITON *     SUNNY     86  79  79 S8G14     29.91R HX  99
DES MOINES     CLOUDY    85  76  74 SE16      29.87R HX  94
GRINNELL*      CLOUDY    81  72  74 SE10      29.88S HX  84
KNOXVILLE *    MOSUNNY   82  77  83 SE10G18   29.88F HX  91
MARSHALLTOWN   LGT RAIN  74  68  81 S15       29.89R
PELLA *        CLOUDY    82  79  89 SE14G22   29.89F HX  93
PERRY *        PTSUNNY   81  75  83 NE10      29.92R HX  86
$$

IAZ004>006-015-016-023>025-035-036-282000-
   NORTH CENTRAL IOWA

CITY           SKY/WX    TMP DP  RH WIND       PRES   REMARKS
ALGONA *       CLOUDY    81  73  78 S9        29.89R HX  85
CLARION *      SUNNY     79  73  83 S16G23    29.91R HX  82
ESTHERVILLE    CLOUDY    79  70  74 SW14G23   29.87R HX  82
FORT DODGE *   CLOUDY    77  70  78 S9        29.92R
MASON CITY     MOSUNNY   77  74  90 S20       29.90R
FOREST CITY *  MOSUNNY   81  72  74 S10       29.88R HX  84
IOWA FALLS *     N/A     75  70  83 S7        29.93R
$$

IAZ007>011-017>019-026>030-037>042-050>054-066-282000-
   NORTHEAST IOWA

CITY           SKY/WX    TMP DP  RH WIND       PRES   REMARKS
CEDAR RAPIDS   CLOUDY    72  72 100 SE8       29.87F
CHARLES CITY * SUNNY     79  73  83 SE9       29.87F HX  82
CLINTON *      CLOUDY    77  73  88 S6        29.95F
DECORAH *      SUNNY     77  72  83 S10       29.86F
DUBUQUE        CLOUDY    74  72  93 SE12G22   29.85F
MONTICELLO *   CLOUDY    73  70  88 SE13G18   29.84F
OELWEIN *      SUNNY     77  70  78 S6G13     29.88S
WATERLOO       CLOUDY    78  70  76 S12       29.86S HX  80
$$

IAZ064-065-067-068-078-282000-
   EAST CENTRAL IOWA

CITY           SKY/WX    TMP DP  RH WIND       PRES   REMARKS
DAVENPORT      CLOUDY    77  73  87 CALM      29.95F
IOWA CITY      CLOUDY    73  71  93 SE14      29.90F
MT. PLEASANT * CLOUDY    79  73  83 NE10      29.93F HX  82
MUSCATINE *    SUNNY     77  70  78 E6        29.93F
QUAD CITIES    CLOUDY    79  71  76 N6        29.93F HX  82
$$

IAZ062-063-075>077-085>089-095>099-282000-
   SOUTHEAST IOWA

CITY           SKY/WX    TMP DP  RH WIND       PRES   REMARKS
BURLINGTON     PTSUNNY   90  79  70 CALM      29.93F HX 106
FAIRFIELD *    SUNNY     81  75  83 E12       29.92F HX  86
FORT MADISON * SUNNY     90  81  74 S3        29.94F HX 108
KEOKUK *       SUNNY     91  79  66 SW6       29.92F HX 107
OSKALOOSA *      N/A     84  75  74 SE9       29.90F HX  92
CENTERVILLE *  SUNNY     86  81  84 E7        29.93F HX 102
OTTUMWA        CLOUDY    84  78  82 E10       29.89F HX  95
WASHINGTON *   SUNNY     77  73  88 E12G17    29.93F
$$

ABBREVIATIONS USED IN REMARKS
   TC - TEMPERATURES IN CELSIUS
  WCI - WIND CHILL INDEX
   HX - HEAT INDEX
  VSB - VISIBILITY
$$




USA.gov is the U.S. government's official web portal to all federal, state and local government web resources and services.